Torna al catalogo

THORAD AGENA D DEB

AttivoPO
NORAD 42526·DEBRIS·🇺🇸 United States

Lanciato Apr 8, 1970 da Vandenberg Space Force Base

Loading…

Prossimi Passaggi (prossime 24 ore)

TLE

In scadenzaSource: Space-Track

Epoca: Sep 11, 2026, 02:13 UTC

1 42526U 70025SG  26254.09277051  .00000160  00000-0  15755-3 0  9996
2 42526  99.8131 203.1655 0085961 258.0564 163.8456 13.92893137649540

Traccia THORAD AGENA D DEB in tempo reale con AllMySat

Download on the App Store